Regional Weather Roundup
Issued by NWS

Home | Current Version | Previous Version | Graphics & Text | Print | Product List | Glossary On
Versions: 1 2 3 4 5 6 7 8 9 10 11 12 13 14 15 16 17 18 19 20 21 22 23 24 25 26 27 28
000
ASUS45 KCYS 301510
RWRWY

WYOMING REGIONAL WEATHER ROUNDUP
NATIONAL WEATHER SERVICE CHEYENNE WY
900 AM MDT THU OCT 30 2014

NOTE:  "FAIR" INDICATES FEW OR NO CLOUDS BELOW 12,000 FEET
WITH NO SIGNIFICANT WEATHER AND/OR OBSTRUCTIONS TO VISIBILITY.

WYZ001-301600-
YELLOWSTONE NATIONAL PARK

CITY           SKY/WX    TMP DP  RH WIND       PRES   REMARKS
LK YELLOWSTONE   N/A     29  27  92 NW3       30.39
W YELLOWSTONE  NOT AVBL

$$
WYZ002>013-054>058-071-098>099-301600-
NORTHERN WYOMING

CITY           SKY/WX    TMP DP  RH WIND       PRES   REMARKS
JACKSON        CLEAR     27  27 100 CALM      30.39R
CODY           MOSUNNY   39  28  65 S5        30.32
GREYBULL       CLOUDY    33  22  63 CALM      30.34R
WORLAND        MOSUNNY   36  22  56 CALM      30.33R
SHERIDAN       SUNNY     38  27  64 S5        30.33R WCI  34
BUFFALO        SUNNY     43  25  49 SW5       30.35R
GILLETTE       SUNNY     44  29  55 W9        30.33R
HULETT         FAIR      43  32  65 SW5       30.33
NEWCASTLE      FAIR      39  30  70 N8        30.32  WCI  34

$$
WYZ014>020-022>026-101>103-301600-
CENTRAL WYOMING

CITY           SKY/WX    TMP DP  RH WIND       PRES   REMARKS
BIG PINEY      MOSUNNY   26  21  81 E5        30.41R WCI  20
PINEDALE       PTSUNNY   25  23  93 W3        30.42
DUBOIS         CLOUDY    36  27  69 W14       30.34S WCI  27
LANDER         MOSUNNY   36  25  64 CALM      30.33R
RIVERTON       MOSUNNY   39  25  57 CALM      30.34R
CASPER         SUNNY     33  20  58 CALM      30.36R
DOUGLAS        SUNNY     35  22  58 NW5       30.37R WCI  31

$$
WYZ021-027>030-104>119-301600-
SOUTHERN WYOMING

CITY           SKY/WX    TMP DP  RH WIND       PRES   REMARKS
EVANSTON       MOSUNNY   41  24  51 CALM      30.38R
FORT BRIDGER   FAIR      41  29  62 CALM      30.41S
ROCK SPRINGS   CLOUDY    33  26  75 NE5       30.39R WCI  29
RAWLINS        SUNNY     39  26  59 SW6       30.40R WCI  35
SARATOGA       FAIR      32  25  74 SE3       30.42R
LARAMIE        MOSUNNY   35  25  66 SE3       30.39R
CHEYENNE       SUNNY     40  26  57 W12       30.38R WCI  33
TORRINGTON     SUNNY     35  25  66 SW3       30.34R
PINE BLUFFS    FAIR      37  28  70 CALM      30.37R

$$



USA.gov is the U.S. government's official web portal to all federal, state and local government web resources and services.